Temp
-8 -8 -8 -8 -9 -9 -9 -9 -9 -9 -9 -9 -9 -9 -9 -9 -10 -10 -10 -10 -10 -10 -10 -10 -10 -11 -11 -11 -11 -11 -11 -12 -12 -12 -11 -11 -12 -12 -12 -12 -12 -12 -11 -11 -11 -11 -11 -11 -11
-8 -8 -8 -8 -9 -9 -9 -9 -9 -9 -9 -9 -9 -9 -10 -10 -10 -10 -10 -10 -10 -10 -10 -10 -10 -10 -11 -11 -11 -11 -11 -11 -11 -11 -12 -12 -12 -12 -12 -12 -12 -12 -12 -12 -12 -12 -12 -12 -12
-8 -8 -8 -9 -9 -9 -9 -9 -9 -9 -9 -9 -9 -10 -10 -10 -10 -10 -10 -10 -10 -10 -10 -10 -10 -10 -11 -11 -11 -11 -11 -11 -11 -11 -11 -11 -12 -12 -12 -12 -12 -12 -12 -12 -12 -12 -12 -12 -12
-8 -9 -9 -9 -9 -9 -9 -9 -9 -9 -9 -10 -10 -10 -10 -10 -10 -10 -10 -10 -10 -10 -10 -10 -10 -10 -11 -11 -11 -11 -11 -11 -11 -11 -11 -11 -12 -12 -12 -12 -12 -12 -12 -12 -12 -12 -12 -12 -12
-8 -9 -9 -9 -9 -9 -9 -9 -9 -9 -9 -10 -10 -10 -10 -10 -10 -10 -10 -10 -10 -10 -10 -10 -10 -10 -10 -11 -11 -11 -11 -11 -11 -11 -12 -12 -12 -12 -12 -12 -12 -12 -12 -12 -12 -12 -12 -12 -12
-9 -9 -9 -9 -9 -9 -9 -9 -9 -9 -9 -10 -10 -10 -10 -10 -10 -10 -10 -10 -10 -10 -10 -10 -10 -10 -10 -10 -11 -11 -11 -11 -11 -12 -12 -12 -12 -12 -12 -12 -12 -12 -12 -12 -12 -12 -12 -12 -12
-9 -9 -9 -9 -9 -9 -9 -9 -9 -9 -9 -10 -10 -10 -10 -10 -10 -10 -10 -10 -10 -10 -10 -10 -10 -10 -10 -10 -11 -11 -11 -11 -12 -12 -12 -12 -12 -12 -12 -12 -12 -12 -12 -12 -12 -12 -12 -12 -12
-9 -9 -9 -9 -9 -9 -9 -9 -9 -9 -10 -10 -10 -10 -10 -10 -10 -10 -11 -11 -11 -11 -10 -10 -10 -10 -10 -10 -11 -11 -11 -12 -12 -12 -12 -12 -12 -12 -12 -12 -12 -12 -12 -12 -12 -12 -12 -12 -12
-9 -9 -9 -9 -9 -9 -10 -10 -10 -10 -10 -10 -10 -10 -10 -10 -11 -11 -11 -11 -11 -11 -11 -11 -11 -10 -10 -11 -11 -11 -12 -12 -12 -12 -12 -12 -12 -12 -11 -12 -12 -12 -12 -12 -12 -12 -12 -12 -12
-9 -9 -10 -10 -10 -10 -10 -10 -9 -9 -10 -10 -10 -10 -10 -10 -11 -11 -11 -11 -11 -11 -11 -11 -11 -11 -11 -11 -11 -11 -12 -12 -12 -12 -12 -12 -12 -12 -12 -12 -12 -12 -12 -12 -12 -12 -12 -12 -12
-10 -10 -10 -10 -10 -10 -10 -10 -10 -10 -10 -10 -10 -10 -10 -11 -11 -11 -11 -11 -11 -11 -11 -11 -11 -11 -11 -11 -11 -11 -11 -12 -12 -12 -12 -12 -12 -12 -12 -12 -12 -12 -12 -12 -12 -12 -12 -12 -12
-10 -11 -10 -10 -10 -10 -10 -10 -10 -10 -10 -10 -10 -10 -10 -11 -11 -11 -11 -11 -11 -11 -11 -11 -11 -11 -11 -11 -11 -12 -11 -12 -12 -12 -12 -12 -12 -12 -12 -12 -12 -12 -12 -12 -12 -12 -12 -12 -12
-11 -11 -10 -10 -10 -10 -10 -10 -10 -10 -10 -10 -10 -10 -10 -11 -11 -11 -11 -11 -11 -11 -11 -11 -11 -11 -11 -11 -11 -11 -11 -12 -12 -12 -12 -12 -12 -12 -12 -12 -12 -12 -12 -12 -12 -12 -12 -12 -12
-11 -11 -10 -10 -10 -10 -10 -10 -10 -10 -10 -10 -10 -10 -11 -11 -11 -11 -11 -11 -11 -11 -11 -11 -11 -11 -11 -11 -11 -11 -11 -11 -11 -12 -12 -12 -12 -12 -12 -12 -12 -12 -12 -12 -12 -12 -12 -12 -12
-11 -11 -11 -11 -10 -10 -10 -10 -10 -10 -10 -10 -10 -11 -11 -11 -11 -11 -11 -11 -11 -11 -11 -11 -11 -11 -11 -11 -11 -11 -11 -11 -11 -11 -11 -12 -12 -12 -12 -12 -12 -12 -12 -12 -12 -12 -12 -12 -12
-11 -11 -11 -11 -11 -10 -10 -10 -10 -10 -10 -10 -10 -10 -11 -11 -11 -11 -11 -11 -11 -11 -11 -11 -11 -11 -11 -11 -11 -11 -11 -11 -11 -11 -11 -11 -11 -12 -12 -12 -12 -12 -12 -12 -12 -12 -12 -12 -12
-11 -11 -11 -11 -11 -11 -10 -10 -11 -10 -10 -10 -10 -11 -11 -11 -11 -11 -11 -11 -11 -11 -11 -11 -11 -11 -11 -11 -11 -11 -11 -11 -11 -11 -11 -11 -11 -12 -12 -12 -12 -12 -12 -12 -12 -12 -12 -12 -13
-11 -12 -12 -12 -11 -11 -10 -11 -11 -11 -10 -10 -11 -11 -11 -11 -11 -11 -11 -11 -11 -11 -11 -11 -11 -11 -11 -11 -11 -11 -11 -11 -12 -11 -11 -11 -11 -11 -11 -12 -12 -12 -12 -12 -12 -12 -12 -12 -12
-12 -12 -12 -12 -11 -11 -11 -11 -11 -11 -10 -10 -11 -11 -11 -11 -11 -11 -11 -11 -11 -11 -11 -11 -11 -12 -12 -12 -11 -12 -11 -11 -11 -11 -12 -12 -12 -12 -12 -12 -12 -12 -12 -12 -12 -12 -12 -12 -12
-12 -12 -12 -12 -12 -11 -11 -11 -11 -11 -11 -11 -11 -11 -11 -11 -12 -12 -11 -11 -11 -11 -11 -11 -11 -12 -12 -11 -12 -12 -12 -12 -12 -12 -12 -12 -12 -12 -12 -12 -12 -12 -12 -12 -12 -12 -12 -12 -12
-12 -12 -12 -13 -12 -11 -11 -11 -11 -11 -11 -11 -11 -11 -11 -12 -11 -11 -11 -11 -11 -12 -11 -12 -11 -11 -12 -12 -12 -12 -11 -12 -12 -12 -12 -12 -12 -12 -12 -12 -12 -12 -12 -12 -13 -13 -13 -13 -13
-13 -13 -13 -13 -12 -12 -12 -10 -11 -11 -11 -11 -11 -11 -12 -11 -11 -11 -11 -11 -11 -11 -12 -12 -12 -12 -12 -12 -12 -12 -12 -12 -12 -12 -12 -12 -12 -12 -12 -12 -12 -12 -12 -12 -13 -13 -13 -13 -13
-13 -14 -13 -13 -13 -12 -12 -11 -10 -11 -11 -12 -12 -11 -11 -12 -12 -12 -12 -11 -11 -11 -11 -11 -11 -11 -12 -12 -12 -12 -12 -12 -12 -12 -12 -13 -13 -13 -13 -12 -12 -12 -12 -13 -13 -13 -13 -13 -13
-14 -14 -14 -14 -13 -12 -12 -12 -11 -11 -11 -11 -12 -12 -12 -12 -12 -12 -12 -12 -12 -11 -12 -12 -12 -12 -12 -12 -12 -12 -12 -12 -12 -13 -13 -13 -13 -13 -13 -13 -13 -13 -13 -13 -14 -14 -14 -14 -14
-14 -14 -14 -14 -13 -12 -12 -12 -11 -11 -11 -11 -11 -12 -12 -12 -12 -12 -12 -12 -12 -12 -12 -12 -12 -12 -12 -12 -12 -12 -12 -13 -13 -13 -13 -13 -13 -13 -13 -13 -14 -13 -14 -14 -14 -15 -15 -14 -14
-15 -15 -15 -14 -14 -13 -13 -12 -11 -12 -12 -12 -12 -12 -12 -12 -12 -12 -12 -12 -12 -12 -12 -12 -12 -12 -12 -12 -12 -13 -13 -13 -13 -14 -14 -14 -14 -14 -14 -14 -14 -14 -14 -14 -15 -15 -15 -15 -15
-15 -15 -15 -15 -15 -14 -13 -12 -12 -12 -11 -11 -12 -12 -12 -12 -13 -13 -12 -12 -12 -12 -12 -12 -12 -12 -12 -12 -13 -13 -13 -14 -14 -14 -14 -13 -14 -14 -14 -15 -15 -15 -15 -15 -15 -15 -16 -15 -15
-15 -15 -15 -15 -14 -14 -13 -12 -12 -12 -12 -12 -13 -13 -13 -13 -13 -13 -13 -13 -13 -13 -13 -13 -13 -13 -13 -13 -14 -14 -14 -14 -14 -14 -14 -14 -14 -14 -14 -15 -16 -16 -16 -16 -16 -16 -16 -16 -16
-16 -15 -15 -16 -16 -15 -14 -13 -12 -12 -13 -13 -13 -14 -14 -13 -13 -13 -13 -13 -13 -13 -14 -13 -13 -13 -14 -14 -14 -14 -14 -15 -15 -14 -14 -14 -15 -15 -15 -16 -16 -17 -17 -17 -17 -16 -17 -17 -17
-16 -16 -16 -16 -15 -15 -15 -13 -13 -13 -13 -13 -14 -15 -15 -15 -14 -14 -14 -14 -14 -14 -14 -14 -14 -15 -15 -15 -15 -15 -15 -15 -15 -15 -15 -15 -16 -16 -16 -17 -17 -17 -17 -17 -17 -17 -17 -17 -17
Height
5847 5848 5850 5852 5858 5857 5859 5861 5860 5860 5861 5862 5862 5864 5864 5865 5866 5869 5867 5866 5865 5864 5864 5863 5863 5862 5860 5859 5858 5856 5856 5855 5855 5855 5855 5854 5855 5855 5855 5855 5855 5855 5856 5855 5855 5856 5855 5855 5855
5846 5848 5851 5852 5857 5858 5860 5860 5861 5862 5862 5863 5863 5864 5865 5866 5867 5868 5868 5867 5866 5866 5865 5865 5864 5863 5862 5861 5860 5859 5858 5858 5857 5856 5856 5856 5856 5856 5856 5856 5855 5855 5855 5855 5855 5855 5854 5854 5854
5846 5848 5852 5854 5855 5858 5859 5860 5861 5862 5862 5864 5865 5865 5866 5867 5868 5869 5869 5868 5867 5866 5866 5866 5866 5865 5864 5863 5861 5860 5860 5859 5858 5858 5858 5857 5857 5857 5856 5856 5855 5855 5856 5855 5855 5854 5854 5854 5853
5846 5849 5852 5854 5856 5857 5859 5860 5861 5863 5864 5864 5866 5866 5867 5868 5868 5869 5869 5869 5868 5867 5867 5867 5866 5865 5865 5864 5863 5862 5861 5860 5860 5859 5859 5858 5858 5857 5857 5857 5856 5856 5856 5855 5854 5854 5853 5852 5852
5845 5849 5851 5853 5856 5857 5859 5861 5861 5863 5864 5865 5866 5866 5867 5868 5868 5868 5869 5869 5869 5868 5868 5867 5866 5865 5864 5863 5863 5862 5861 5861 5860 5860 5859 5859 5859 5858 5858 5857 5857 5857 5856 5855 5855 5854 5853 5852 5852
5844 5847 5851 5853 5855 5857 5860 5860 5862 5864 5864 5865 5866 5866 5867 5868 5868 5868 5869 5869 5869 5868 5868 5867 5866 5865 5864 5863 5862 5861 5861 5861 5860 5860 5859 5859 5859 5858 5858 5857 5857 5856 5855 5854 5854 5853 5853 5852 5851
5842 5845 5849 5852 5854 5857 5859 5860 5861 5863 5864 5865 5866 5867 5867 5867 5869 5868 5868 5868 5868 5868 5867 5867 5866 5864 5863 5861 5861 5860 5860 5860 5860 5859 5859 5858 5858 5857 5857 5856 5856 5855 5855 5854 5853 5852 5852 5851 5850
5839 5843 5847 5850 5853 5855 5858 5860 5861 5862 5863 5865 5866 5867 5867 5867 5868 5868 5868 5868 5868 5868 5866 5865 5865 5863 5862 5860 5859 5859 5859 5859 5859 5858 5858 5857 5857 5856 5855 5855 5854 5854 5853 5853 5852 5851 5850 5849 5849
5836 5841 5846 5849 5852 5854 5856 5858 5860 5861 5862 5864 5865 5866 5865 5867 5866 5867 5868 5868 5868 5868 5866 5865 5864 5862 5861 5859 5858 5858 5858 5858 5858 5857 5857 5856 5856 5855 5854 5854 5853 5852 5851 5850 5850 5850 5849 5848 5847
5833 5838 5843 5847 5849 5852 5854 5856 5858 5859 5860 5862 5863 5865 5864 5866 5865 5866 5867 5867 5867 5868 5866 5864 5863 5861 5859 5859 5858 5857 5857 5856 5856 5856 5855 5855 5854 5854 5853 5852 5852 5850 5849 5849 5848 5847 5846 5845 5844
5832 5835 5838 5843 5847 5850 5852 5853 5856 5857 5858 5860 5861 5863 5864 5865 5865 5866 5866 5866 5866 5866 5865 5864 5862 5860 5859 5858 5858 5856 5856 5855 5855 5854 5854 5853 5853 5852 5852 5850 5850 5848 5847 5846 5845 5845 5844 5843 5841
5828 5831 5835 5838 5843 5846 5849 5851 5853 5856 5857 5857 5859 5860 5862 5863 5863 5865 5864 5865 5865 5865 5864 5863 5862 5860 5859 5858 5857 5856 5855 5855 5854 5853 5853 5852 5852 5851 5850 5849 5848 5846 5845 5844 5843 5842 5841 5840 5838
5824 5827 5831 5834 5837 5842 5845 5848 5850 5852 5854 5855 5856 5857 5859 5861 5861 5862 5864 5863 5863 5863 5863 5862 5862 5860 5858 5857 5856 5855 5854 5853 5853 5852 5851 5850 5848 5848 5847 5846 5845 5844 5843 5842 5841 5839 5838 5837 5835
5821 5823 5827 5831 5833 5836 5840 5843 5847 5847 5849 5853 5853 5854 5856 5857 5859 5860 5861 5861 5862 5862 5862 5861 5860 5859 5858 5856 5855 5854 5853 5852 5850 5850 5849 5848 5847 5845 5843 5843 5842 5841 5839 5838 5837 5835 5834 5833 5831
5815 5820 5821 5825 5829 5831 5835 5839 5844 5840 5846 5850 5849 5850 5852 5852 5855 5856 5858 5859 5860 5859 5859 5859 5859 5858 5856 5855 5854 5853 5852 5850 5849 5847 5847 5846 5845 5844 5843 5840 5838 5837 5836 5834 5832 5830 5829 5827 5826
5811 5814 5818 5820 5823 5826 5830 5835 5836 5837 5840 5843 5845 5846 5848 5849 5851 5852 5854 5855 5856 5857 5856 5857 5856 5855 5855 5853 5852 5850 5850 5849 5847 5845 5844 5843 5842 5841 5840 5838 5836 5834 5832 5830 5828 5826 5824 5822 5820
5806 5811 5813 5813 5817 5820 5825 5830 5830 5833 5834 5837 5840 5842 5844 5845 5847 5847 5848 5851 5852 5852 5853 5853 5853 5853 5852 5851 5849 5848 5847 5846 5845 5843 5841 5839 5838 5837 5835 5834 5832 5831 5829 5826 5824 5822 5820 5818 5815
5803 5803 5805 5808 5812 5813 5816 5822 5824 5826 5829 5831 5834 5836 5838 5840 5842 5841 5843 5845 5847 5848 5849 5849 5848 5848 5847 5846 5845 5844 5843 5842 5841 5840 5837 5835 5833 5831 5830 5829 5827 5825 5823 5821 5819 5817 5814 5812 5810
5792 5797 5799 5802 5804 5806 5809 5814 5817 5819 5822 5825 5827 5829 5832 5834 5835 5836 5837 5839 5841 5843 5844 5844 5844 5842 5842 5841 5840 5839 5839 5838 5836 5835 5832 5830 5828 5826 5824 5822 5820 5819 5817 5815 5812 5810 5807 5806 5803
5787 5791 5794 5795 5798 5801 5802 5808 5810 5812 5816 5818 5820 5822 5825 5828 5830 5830 5830 5833 5835 5837 5839 5839 5838 5837 5836 5835 5834 5834 5832 5832 5830 5829 5827 5825 5822 5821 5819 5816 5814 5811 5809 5807 5806 5803 5800 5798 5796
5780 5784 5786 5789 5791 5794 5796 5801 5804 5807 5809 5812 5814 5816 5818 5820 5822 5823 5824 5826 5829 5830 5831 5831 5831 5831 5830 5829 5827 5827 5826 5824 5823 5821 5820 5819 5816 5813 5811 5808 5806 5803 5800 5798 5797 5795 5792 5790 5788
5772 5775 5777 5781 5783 5787 5790 5793 5799 5802 5804 5806 5808 5809 5810 5811 5814 5817 5818 5819 5821 5822 5823 5823 5823 5823 5822 5822 5821 5819 5818 5817 5815 5813 5812 5812 5810 5808 5805 5802 5798 5795 5791 5788 5786 5785 5784 5781 5779
5765 5767 5769 5773 5775 5779 5783 5784 5794 5796 5798 5799 5799 5800 5802 5804 5806 5808 5810 5811 5813 5814 5815 5816 5815 5815 5814 5813 5812 5810 5809 5808 5806 5804 5802 5801 5801 5799 5798 5795 5791 5788 5782 5779 5777 5775 5774 5773 5770
5755 5758 5761 5763 5766 5769 5775 5777 5782 5790 5792 5792 5793 5793 5794 5796 5798 5800 5802 5804 5804 5805 5806 5807 5807 5807 5806 5804 5802 5800 5799 5798 5796 5794 5793 5791 5789 5788 5787 5784 5781 5778 5775 5771 5768 5765 5765 5762 5760
5747 5750 5752 5754 5757 5763 5765 5769 5775 5778 5781 5783 5785 5786 5787 5789 5790 5791 5793 5794 5795 5796 5796 5796 5797 5796 5795 5794 5792 5790 5789 5788 5785 5784 5782 5781 5780 5778 5775 5772 5770 5768 5764 5762 5759 5757 5756 5752 5745
5739 5740 5745 5747 5749 5753 5752 5759 5769 5765 5770 5774 5776 5777 5777 5779 5780 5782 5783 5785 5785 5785 5786 5786 5785 5785 5784 5783 5781 5780 5779 5777 5775 5773 5772 5771 5769 5766 5764 5761 5758 5755 5753 5751 5749 5748 5745 5746 5743
5726 5728 5737 5734 5737 5738 5743 5753 5758 5760 5759 5760 5766 5768 5769 5769 5770 5770 5772 5773 5774 5775 5775 5775 5775 5774 5773 5771 5770 5769 5767 5765 5764 5762 5761 5759 5756 5753 5750 5748 5746 5744 5742 5741 5739 5738 5736 5735 5732
5715 5723 5722 5723 5726 5727 5735 5742 5750 5751 5752 5750 5750 5754 5757 5758 5760 5760 5760 5762 5763 5764 5764 5764 5763 5762 5760 5759 5758 5757 5756 5755 5753 5751 5749 5746 5743 5740 5738 5735 5734 5732 5730 5729 5728 5726 5725 5722 5720
5704 5708 5709 5712 5714 5718 5723 5730 5739 5739 5739 5740 5739 5738 5742 5746 5747 5748 5749 5749 5750 5751 5751 5751 5750 5750 5749 5748 5748 5747 5746 5744 5741 5739 5737 5734 5731 5729 5727 5725 5723 5721 5719 5717 5716 5715 5713 5711 5708
5691 5697 5700 5699 5705 5706 5710 5716 5723 5726 5727 5727 5728 5729 5729 5731 5734 5735 5736 5737 5738 5738 5738 5737 5737 5737 5736 5736 5735 5734 5733 5731 5729 5727 5725 5722 5720 5718 5715 5714 5712 5710 5708 5706 5704 5703 5701 5699 5697
Wind_Speed
26 25 23 20 17 15 15 14 13 12 11 12 12 12 12 12 13 13 14 15 15 16 16 17 17 17 17 16 16 16 15 13 11 11 10 11 8 5 4 2 1 2 4 6 7 7 8 9 13
25 24 22 19 17 15 15 13 14 12 11 10 10 11 11 12 12 11 12 11 11 13 14 14 15 16 16 16 15 14 13 13 13 12 9 9 9 8 7 5 3 2 3 4 5 5 5 5 5
25 23 20 19 17 16 14 13 11 11 10 9 8 8 11 10 10 8 8 9 9 11 12 12 13 14 15 14 14 13 12 11 11 11 11 10 8 6 5 5 4 4 4 4 4 4 5 6 7
25 22 20 19 17 16 13 12 11 9 9 8 6 4 7 8 7 6 6 7 7 9 9 10 11 12 13 12 11 11 10 10 9 8 8 8 7 6 4 4 4 4 5 6 7 8 8 8 8
25 22 21 19 16 14 12 9 8 7 7 7 5 2 4 5 5 3 3 4 5 6 7 9 10 12 12 12 10 9 9 9 9 8 7 6 5 5 5 5 6 6 6 7 7 7 8 9 10
26 24 22 20 17 14 10 8 7 3 3 4 4 3 2 1 3 2 1 2 3 4 6 8 10 12 13 12 8 7 6 7 7 7 7 7 6 5 5 6 6 6 7 7 8 8 8 9 9
28 26 24 20 18 15 11 7 5 3 2 2 3 4 3 2 0 1 1 2 2 3 6 9 11 13 14 13 8 5 6 6 6 7 7 7 7 6 6 7 7 7 7 8 8 9 10 10 10
30 28 25 21 19 17 12 8 5 3 3 3 3 4 5 4 3 3 3 2 3 4 7 9 11 13 14 13 8 5 5 6 6 6 7 6 6 7 8 7 8 8 9 9 9 9 9 10 11
31 30 26 22 19 16 14 12 8 5 5 5 5 5 7 6 5 5 4 2 3 5 6 8 10 12 13 11 7 6 5 5 7 8 8 7 7 7 7 8 8 8 10 11 12 11 11 11 12
33 29 27 24 22 19 16 13 10 8 6 7 7 7 8 8 7 6 4 3 4 5 5 7 9 10 10 10 8 8 8 7 7 7 8 7 8 9 9 9 9 9 10 11 12 13 14 14 14
33 29 29 26 23 21 18 15 12 11 10 8 9 10 10 10 9 8 6 5 4 4 6 6 8 9 8 9 9 9 9 8 6 6 7 8 9 10 11 12 12 12 13 13 13 13 13 15 16
32 30 32 28 26 23 21 19 17 16 15 12 11 13 12 12 11 11 8 6 5 5 6 6 8 8 9 9 10 9 9 9 8 9 9 10 10 10 11 12 13 15 15 16 17 17 18 18 19
34 34 34 30 29 27 24 22 19 20 17 14 14 15 15 14 14 13 11 9 8 7 7 8 7 7 9 10 11 11 10 10 10 12 13 14 15 16 15 15 15 15 17 18 19 20 19 18 19
37 35 35 33 31 30 27 25 22 24 21 19 16 16 18 17 16 15 16 11 10 9 8 9 9 8 9 10 11 11 11 12 13 14 16 16 16 18 20 19 21 22 23 24 23 23 23 22 22
39 39 38 35 34 32 30 29 23 30 25 21 20 20 22 23 17 20 18 15 13 12 11 10 11 11 11 11 12 11 12 13 15 15 17 19 18 19 21 24 26 27 27 28 28 28 27 26 26
42 41 40 37 37 35 34 29 29 31 29 25 24 24 24 24 21 22 21 20 17 15 15 12 13 14 14 14 14 16 15 14 15 17 17 18 22 23 23 25 28 28 30 30 30 29 29 30 32
41 41 41 39 38 38 37 31 33 31 32 29 26 24 24 26 24 25 26 23 21 19 18 17 16 16 17 17 18 19 20 20 19 19 20 20 21 23 26 28 31 31 32 32 31 30 30 31 33
40 39 38 37 37 39 39 34 32 32 34 32 28 25 26 28 26 30 28 26 25 23 22 21 21 21 21 20 21 22 24 25 26 25 25 25 24 25 26 28 31 33 35 34 34 34 34 32 32
39 38 38 39 39 39 40 37 33 33 34 33 32 29 27 29 29 30 32 32 30 27 26 26 25 27 26 25 25 25 27 28 30 31 31 31 31 31 31 31 33 35 36 37 38 39 38 37 35
43 40 39 37 38 39 38 36 34 33 31 30 31 30 28 30 29 31 35 34 32 32 30 29 29 32 32 32 32 32 33 33 34 35 35 36 36 35 35 35 37 38 39 38 39 40 41 40 39
39 38 37 37 38 39 39 37 34 32 32 31 30 30 31 31 33 33 35 36 35 34 34 34 35 35 36 36 37 38 39 39 40 39 39 39 39 39 39 40 40 42 42 41 41 41 42 42 42
40 39 38 38 39 40 38 39 33 32 31 30 30 31 33 36 35 34 35 36 36 37 38 38 39 40 40 41 41 43 43 43 44 46 45 41 40 40 41 42 43 46 48 44 43 42 43 43 44
41 40 40 39 39 40 39 41 35 32 30 30 31 34 35 36 37 37 36 36 38 40 41 42 42 43 44 45 46 46 47 46 46 48 46 45 44 42 42 43 45 47 50 47 46 43 43 45 45
46 44 44 43 43 44 41 41 41 33 33 33 35 34 36 38 40 41 41 41 41 42 43 44 44 45 47 49 50 50 50 49 48 47 49 49 49 46 45 45 47 48 48 49 45 41 45 43 47
50 48 48 49 48 46 45 43 42 40 39 39 38 38 37 38 40 41 41 43 44 45 45 45 46 46 47 48 49 51 50 50 50 51 51 51 50 49 49 50 49 47 46 46 47 44 42 44 45
49 49 48 48 49 49 50 48 44 46 43 42 41 41 42 42 42 42 42 44 46 46 46 47 47 47 47 48 49 49 50 52 53 53 52 53 52 52 52 52 49 47 45 44 44 44 42 43 48
51 52 48 49 51 53 54 52 50 49 51 49 47 46 46 46 46 46 46 46 46 46 47 48 49 50 50 50 50 50 51 51 52 53 54 55 55 55 54 51 47 43 42 43 44 44 45 45 47
54 53 52 53 56 57 57 55 50 49 50 53 54 52 51 50 49 49 49 48 47 46 47 47 49 49 50 50 50 51 50 51 51 53 56 58 60 59 55 48 44 41 41 43 43 43 44 45 46
54 55 53 52 52 54 54 54 51 52 56 59 57 59 55 52 51 50 50 50 49 46 44 45 47 48 48 48 47 47 49 51 53 56 58 57 56 51 47 43 41 40 40 41 41 42 43 45 46
55 54 55 56 60 61 63 73 68 65 67 65 59 56 56 52 47 47 46 47 48 48 47 48 46 46 47 48 48 49 51 52 55 53 52 50 47 44 42 41 40 40 42 42 42 44 45 46 49
Wind_Direction
163 158 156 153 151 144 142 135 123 118 107 101 92 84 82 83 82 84 74 68 63 61 55 51 46 44 47 48 50 52 55 58 58 60 57 60 72 76 81 80 69 293 265 280 277 276 278 286 280
169 165 164 158 158 157 149 139 131 126 114 101 96 92 89 88 92 87 75 65 58 55 51 47 45 43 42 43 45 46 48 50 54 59 60 64 67 64 61 56 44 6 327 315 309 313 308 299 295
175 171 167 166 164 162 152 144 139 130 119 107 97 94 97 97 99 90 76 64 54 55 52 48 44 40 39 38 40 41 41 40 44 47 49 54 57 52 45 37 18 5 357 342 339 334 305 292 291
180 176 170 171 168 160 160 152 143 135 124 118 111 100 96 99 98 88 70 55 49 53 47 40 34 33 30 29 31 34 35 31 33 36 37 37 38 41 32 15 346 336 316 320 327 328 324 321 314
183 178 177 175 168 163 166 159 146 145 130 128 135 132 93 96 103 107 73 48 39 47 37 24 20 16 13 17 20 20 23 23 20 18 19 16 13 8 357 351 342 338 332 331 328 323 318 312 307
185 180 183 178 171 170 173 159 149 145 133 150 158 190 141 89 90 74 62 19 22 24 15 8 3 358 357 1 8 10 5 5 8 4 3 358 345 332 324 322 329 331 324 319 315 314 311 307 307
188 183 185 182 175 176 177 171 167 149 151 186 181 197 204 244 296 11 272 286 341 3 354 353 350 349 349 348 350 353 350 350 352 351 350 346 344 334 307 300 302 308 313 314 311 310 310 310 309
191 187 190 186 182 182 183 190 185 204 217 229 207 211 227 231 263 274 255 271 312 335 340 342 340 343 347 346 346 340 340 338 334 332 339 340 339 339 335 315 301 299 295 295 300 305 306 304 302
193 191 192 194 192 189 192 201 201 216 256 280 242 214 232 233 247 256 248 251 295 318 324 336 342 346 349 352 352 339 336 323 317 317 325 325 325 326 329 333 324 308 301 296 293 297 302 301 297
199 194 198 199 199 201 205 215 216 220 243 267 269 232 228 237 244 237 229 244 289 302 324 345 352 357 358 352 351 342 339 328 315 307 312 311 312 318 323 324 324 317 312 308 304 303 302 301 301
204 201 205 203 209 208 213 218 230 239 243 262 269 245 229 236 239 226 221 247 270 293 315 338 354 2 2 358 354 355 353 345 337 323 314 309 308 311 316 318 317 315 313 312 311 310 308 307 305
210 210 213 208 212 219 222 225 226 240 246 249 255 251 233 235 236 231 224 240 257 275 298 324 344 357 360 359 353 338 336 341 337 325 317 308 305 309 312 311 310 310 310 310 309 308 308 308 306
215 216 219 216 217 223 228 234 238 245 248 255 252 250 243 236 234 230 232 233 244 259 282 302 327 338 345 350 356 344 326 314 314 317 314 310 307 306 306 305 307 307 305 305 305 304 304 304 304
220 220 226 224 224 228 232 237 240 249 246 251 251 248 246 239 237 233 235 235 242 251 272 286 308 316 328 333 347 355 340 319 310 302 303 310 306 305 308 308 309 311 311 308 305 303 301 300 303
222 224 226 231 233 233 236 241 244 250 256 250 248 244 239 240 233 234 241 241 246 253 258 270 287 300 308 322 330 338 341 331 320 313 300 293 298 297 297 303 306 308 308 310 308 305 303 301 301
227 227 231 234 238 240 241 242 246 252 256 253 252 250 243 241 238 237 239 243 248 254 259 271 276 287 294 302 311 319 324 323 325 323 316 308 298 293 292 295 299 302 306 309 308 302 300 300 301
231 232 233 235 238 242 245 244 246 249 256 254 253 249 246 244 244 240 240 243 250 254 261 268 276 283 292 300 304 305 308 312 313 313 315 316 314 308 300 295 293 296 300 304 305 302 297 295 296
238 236 234 237 238 240 244 244 244 249 253 256 253 248 244 240 243 245 245 244 250 253 259 266 274 280 283 291 296 301 303 306 305 305 304 306 308 308 310 309 306 301 297 298 299 298 296 294 292
233 236 237 238 239 241 244 245 248 249 253 256 255 248 242 238 241 246 247 245 248 254 256 263 273 279 284 287 293 295 295 298 299 300 299 299 299 302 305 309 307 304 300 295 295 296 296 295 294
235 236 237 239 243 242 244 246 247 252 251 252 256 254 248 240 242 248 248 249 252 256 260 265 268 274 279 285 288 294 291 295 293 293 293 295 296 297 301 304 307 305 299 293 290 292 293 294 293
234 236 238 241 241 243 242 243 245 248 253 255 256 255 251 244 242 248 252 251 252 257 261 264 267 272 277 281 284 287 290 290 290 288 288 291 292 296 298 300 303 303 299 293 290 289 291 290 291
236 239 241 243 243 244 246 245 243 248 253 256 258 256 249 248 248 253 256 258 257 258 261 265 268 272 276 280 282 283 285 287 287 288 288 286 288 290 292 294 296 300 300 295 288 286 286 288 290
238 242 244 246 249 248 248 252 240 244 250 253 255 256 256 253 252 254 258 261 261 261 263 266 270 274 277 279 281 283 286 284 284 286 285 283 284 286 286 288 292 296 296 293 290 289 287 288 288
240 243 245 247 248 249 250 255 250 251 250 249 252 255 257 258 258 259 260 261 263 264 266 268 271 273 276 279 281 281 280 281 281 281 284 287 289 288 287 286 289 292 294 290 287 286 284 285 282
243 245 247 250 251 253 256 257 257 258 255 255 257 257 257 257 258 259 261 263 265 266 268 270 272 273 274 276 277 278 280 282 282 281 282 283 284 286 287 288 291 292 290 287 286 283 284 288 272
247 250 253 257 256 255 255 253 252 261 259 259 260 262 264 263 261 260 258 258 261 264 266 268 270 271 271 273 275 277 278 277 277 279 281 283 283 284 287 289 291 291 288 285 285 283 283 280 278
244 247 252 254 256 257 257 256 257 260 265 264 261 262 261 264 266 265 263 262 262 262 263 265 267 269 272 273 273 272 271 273 275 278 280 282 284 286 288 291 289 287 283 281 282 282 282 283 283
245 245 246 249 252 255 259 259 261 262 262 267 272 270 265 262 261 264 267 268 267 267 267 267 268 269 269 268 267 267 269 273 275 276 278 281 284 286 288 287 286 284 281 281 281 281 282 283 284
244 245 246 251 252 258 261 259 260 258 266 271 272 268 266 264 264 264 265 268 270 271 271 271 270 268 267 266 264 268 271 274 275 279 280 283 284 284 285 286 286 285 284 282 282 282 282 282 283
245 245 247 249 253 257 262 258 258 261 267 271 268 265 270 271 267 264 264 268 268 268 269 269 268 266 263 261 263 267 270 272 273 278 278 278 279 283 284 286 287 286 285 284 283 287 288 287 286